STARLINK-11264, 60906

Orbit data source: Space-Track

STARLINK-11264, 60906 is a payload satellite owned by SpaceX/Seattle (US) in LEO that was launched on Sat, 31 Aug 2024 UTC via an FALCON 9 launch vehicle from the Air Force Eastern Test Range (AFETR). Payload-class satellites include a variety of spacecraft equipped with specific instruments for various scientific and technological missions. These include communications satellites like Starlink; space stations such as the ISS; scientific satellites like the Hubble; Earth observation satellites from companies like Planet Labs, Umbra, and HawkEye 360; GPS; miniature CubeSats for education and research; and military/defense satellites.

Not visible in the next 10 days
Identifier
60906, 2024-154D
Orbit
LEO
Country
Flag of USUS
Related business
Manufacturer
SpaceX/Seattle
Mission
Operational Commercial Communications
Bus & Motor
STARLINK V2MD, Unknown motor
Mass
960 kg wet, ~910 kg dry
Launch date (UTC)
2024-08-31 (2 years ago)
Launch vehicle
FALCON 9
Launch site
Air Force Eastern Test Range (AFETR)
Object type
Payload
Rocket body
Debris
Shape & HBR
Box + 2 Pan, 18.1 m
Radar Cross Section
36.964 m², Large (>1 m²)

Expand to show TLE details & history
Last TLE update: 14 hours ago

TLE from 14 hours ago
0 STARLINK-11264
1 60906U 24154D   26129.89304734 -.00001292  00000-0 -58133-5 0  9996
2 60906  53.1596 189.8054 0000962  77.0498 283.0627 15.69702189 98125
Epoch: 2026-05-09T21:25Z
TLE epoch observation values (Epoch: 2026-05-09T21:25:59.290Z)
Latitude
-0.00003°
Longitude
0.60438°
Altitude
360.518 km
Speed
7.694 km/s
True Right ascension
12h 39m 13s
True Declination
0° 00' 00"
Sunlit
Object was in full shadow at epoch
Visualization orbit readout
Latitude
Unknown
Longitude
Unknown
Altitude
Unknown
Speed
Unknown
Apparent Right ascension
Unknown
Apparent Declination
Unknown
Sunlit
N/A
Visualization observer readout
Local Sidereal Time
19:50:55
Azimuth
Unknown
Elevation
Unknown
Doppler factor
Unknown
Orbital elements
Apogee altitude
360.658 km
Perigee altitude
359.362 km
Semi-major axis
6,738.147 km
Eccentricity
0.0001
Inclination
53.1596°
RAAN
189.8054°
Arg. of periapsis
77.0498°
True anomaly
283.05196°
Mean anomaly
283.0627°
Eccentric anomaly
283.05733°
Mean motion
3.92403 °/min
Orbital period
91.74 mins
BSTAR
-0.0000058133
Loading maneuver chart data...
Computing Atmospheric mass density...
Loading historical data...
Loading historical data...
Loading historical data...
Loading historical data...
Loading historical data...
Loading historical data...
Loading historical data...

Documentation

Showing up to 5 results
|